Salida, CO

2:49 AM MST on February 24, 2017 (GMT -0700)
Salida

Weather History for KANK - September, 2013

Change the Weather History Date:

Thursday, September 5, 2013

  Actual Average (KGUC) Record (KGUC)
Temperature  
Mean Temperature 70 °F -  
Max Temperature 89 °F 70 °F 84 °F (2013)
Min Temperature 51 °F 37 °F 32 °F (1999)
Cooling Degree Days 5    
Growing Degree Days 20 (Base 50)    
Moisture  
Dew Point 42 °F    
Average Humidity 45    
Maximum Humidity 86    
Minimum Humidity 10    
Precipitation  
Precipitation 0.00 in - - ()
Sea Level Pressure  
Sea Level Pressure 30.50 in    
Wind  
Wind Speed 6 mph (SSW)    
Max Wind Speed 16 mph    
Max Gust Speed 25 mph    
Visibility 10 miles    
Events      
Averages and records for this station are not official NWS values.
T = Trace of Precipitation, MM = Missing Value Source: NWS Daily Summary

Daily Weather History Graph

Daily Weather History Graph

Search for Another Location

Airport or City:

Trip Planner

Search our weather history database for the weather conditions in past years. The results will help you decide how hot, cold, wet, or windy it might be!

Date:

Astronomy

Sep. 05, 2013 Rise Set
Actual Time 6:37 AM MDT 7:27 PM MDT
Civil Twilight 6:10 AM MDT 7:54 PM MDT
Nautical Twilight 5:38 AM MDT 8:26 PM MDT
Astronomical Twilight 5:05 AM MDT 8:59 PM MDT
Moon 6:50 AM MDT (9/5) 7:21 PM MDT (9/5)
Length of Visible Light 13h 44m
Length of Day
12h 50m
New Moon, 0% of the Moon is Illuminated
Sep 5
New Moon
Sep 12
First Quarter
Sep 19
Full
Sep 26
Last Quarter
Oct 4
New

Hourly Weather History & Observations

Time (MDT) Temp. Dew Point Humidity Pressure Visibility Wind Dir Wind Speed Gust Speed Precip Events Conditions
12:15 AM 58.5 °F 50.0 °F 73% 30.54 in 10.0 mi West 5.8 mph - N/A   Clear
12:35 AM 57.2 °F 49.3 °F 75% 30.54 in 10.0 mi West 6.9 mph - N/A   Clear
12:55 AM 57.6 °F 49.1 °F 73% 30.54 in 10.0 mi West 3.5 mph - N/A   Clear
1:15 AM 56.5 °F 48.9 °F 76% 30.55 in 10.0 mi West 8.1 mph - N/A   Clear
1:35 AM 57.2 °F 49.1 °F 74% 30.54 in 10.0 mi West 4.6 mph - N/A   Clear
1:55 AM 55.6 °F 48.0 °F 76% 30.55 in 10.0 mi West 3.5 mph - N/A   Clear
2:15 AM 53.6 °F 47.3 °F 79% 30.55 in 10.0 mi SW 4.6 mph - N/A   Clear
2:35 AM 53.8 °F 47.5 °F 79% 30.55 in 10.0 mi West 5.8 mph - N/A   Clear
2:55 AM 54.3 °F 47.7 °F 78% 30.55 in 10.0 mi West 5.8 mph - N/A   Clear
3:15 AM 52.7 °F 47.3 °F 82% 30.55 in 10.0 mi West 4.6 mph - N/A   Clear
3:35 AM 53.6 °F 48.0 °F 81% 30.55 in 10.0 mi WSW 6.9 mph - N/A   Clear
3:55 AM 53.6 °F 47.3 °F 79% 30.55 in 10.0 mi West 5.8 mph - N/A   Clear
4:15 AM 54.0 °F 48.7 °F 82% 30.55 in 10.0 mi Calm Calm - N/A   Clear
4:35 AM 53.6 °F 48.9 °F 84% 30.55 in 10.0 mi WSW 3.5 mph - N/A   Clear
4:55 AM 51.3 °F 47.3 °F 86% 30.55 in 10.0 mi West 4.6 mph - N/A   Clear
5:15 AM 52.7 °F 48.4 °F 85% 30.55 in 10.0 mi WNW 4.6 mph - N/A   Clear
5:35 AM 53.4 °F 48.4 °F 83% 30.55 in 10.0 mi Calm Calm - N/A   Clear
5:55 AM 53.4 °F 48.4 °F 83% 30.55 in 10.0 mi West 3.5 mph - N/A   Clear
6:15 AM 53.2 °F 48.4 °F 84% 30.55 in 10.0 mi Calm Calm - N/A   Clear
6:35 AM 53.2 °F 48.4 °F 84% 30.55 in 10.0 mi NW 5.8 mph - N/A   Clear
6:55 AM 54.0 °F 48.4 °F 81% 30.56 in 10.0 mi NW 4.6 mph - N/A   Clear
7:15 AM 53.4 °F 48.2 °F 82% 30.57 in 10.0 mi Calm Calm - N/A   Clear
7:35 AM 55.8 °F 48.9 °F 78% 30.57 in 10.0 mi WNW 3.5 mph - N/A   Clear
7:55 AM 57.7 °F 49.1 °F 73% 30.57 in 10.0 mi NW 5.8 mph - N/A   Clear
8:15 AM 59.7 °F 49.3 °F 68% 30.57 in 10.0 mi Calm Calm - N/A   Clear
8:35 AM 59.9 °F 49.5 °F 68% 30.57 in 10.0 mi NNW 4.6 mph - N/A   Clear
8:55 AM 62.2 °F 49.1 °F 62% 30.57 in 10.0 mi NNW 5.8 mph - N/A   Clear
9:15 AM 64.4 °F 49.6 °F 59% 30.56 in 10.0 mi North 4.6 mph - N/A   Clear
9:35 AM 64.8 °F 50.2 °F 59% 30.56 in 10.0 mi North 3.5 mph - N/A   Clear
9:55 AM 67.3 °F 49.3 °F 52% 30.56 in 10.0 mi Calm Calm - N/A   Clear
10:15 AM 70.0 °F 46.2 °F 43% 30.55 in 10.0 mi Calm Calm - N/A   Clear
10:35 AM 72.1 °F 45.1 °F 38% 30.55 in 10.0 mi NNE 3.5 mph - N/A   Clear
10:55 AM 73.4 °F 45.0 °F 36% 30.54 in 10.0 mi Calm Calm - N/A   Clear
11:15 AM 75.2 °F 45.3 °F 34% 30.53 in 10.0 mi Calm Calm - N/A   Clear
11:35 AM 77.0 °F 45.1 °F 32% 30.52 in 10.0 mi Calm Calm - N/A   Clear
11:55 AM 79.0 °F 44.2 °F 29% 30.51 in 10.0 mi Calm Calm - N/A   Clear
12:15 PM 81.0 °F 42.6 °F 26% 30.50 in 10.0 mi NE 3.5 mph - N/A   Clear
12:35 PM 83.3 °F 41.5 °F 23% 30.49 in 10.0 mi ESE 4.6 mph - N/A   Clear
12:55 PM 85.5 °F 37.8 °F 18% 30.48 in 10.0 mi ENE 6.9 mph - N/A   Clear
1:15 PM 87.3 °F 34.7 °F 15% 30.47 in 10.0 mi East 10.4 mph - N/A   Clear
1:35 PM 87.1 °F 31.8 °F 14% 30.47 in 10.0 mi East 8.1 mph 16.1 mph N/A   Clear
1:55 PM 88.0 °F 31.5 °F 13% 30.46 in 10.0 mi East 5.8 mph 17.3 mph N/A   Clear
2:15 PM 88.7 °F 30.9 °F 13% 30.45 in 10.0 mi South 6.9 mph 19.6 mph N/A   Clear
2:35 PM 87.6 °F 29.8 °F 13% 30.45 in 10.0 mi SW 3.5 mph 17.3 mph N/A   Clear
2:55 PM 87.8 °F 28.8 °F 12% 30.44 in 10.0 mi SE 5.8 mph - N/A   Clear
3:15 PM 88.7 °F 29.5 °F 12% 30.43 in 10.0 mi South 10.4 mph 18.4 mph N/A   Scattered Clouds
3:35 PM 89.2 °F 26.2 °F 10% 30.42 in 10.0 mi SE 11.5 mph - N/A   Clear
3:55 PM 88.7 °F 27.0 °F 11% 30.42 in 10.0 mi SSE 8.1 mph 17.3 mph N/A   Clear
4:15 PM 89.2 °F 29.8 °F 12% 30.42 in 10.0 mi SSE 5.8 mph 25.3 mph N/A   Clear
4:35 PM 88.2 °F 32.0 °F 13% 30.41 in 10.0 mi East 10.4 mph 17.3 mph N/A   Clear
4:55 PM 88.5 °F 33.3 °F 14% 30.40 in 10.0 mi ESE 15.0 mph 20.7 mph N/A   Clear
5:15 PM 86.9 °F 36.5 °F 17% 30.40 in 10.0 mi ESE 16.1 mph 23.0 mph N/A   Clear
5:35 PM 86.2 °F 36.1 °F 17% 30.40 in 10.0 mi SE 16.1 mph 23.0 mph N/A   Clear
5:55 PM 84.9 °F 38.3 °F 19% 30.40 in 10.0 mi ESE 16.1 mph 25.3 mph N/A   Clear
6:15 PM 83.8 °F 38.1 °F 20% 30.40 in 10.0 mi SE 15.0 mph 23.0 mph N/A   Clear
6:35 PM 82.6 °F 37.6 °F 20% 30.40 in 10.0 mi SE 13.8 mph 19.6 mph N/A   Clear
6:55 PM 80.8 °F 38.1 °F 22% 30.40 in 10.0 mi SE 9.2 mph - N/A   Clear
7:15 PM 79.9 °F 37.9 °F 22% 30.41 in 10.0 mi SE 9.2 mph 16.1 mph N/A   Scattered Clouds
7:35 PM 79.5 °F 37.4 °F 22% 30.42 in 10.0 mi SE 8.1 mph - N/A   Clear
7:55 PM 77.9 °F 37.4 °F 23% 30.43 in 10.0 mi SE 6.9 mph - N/A   Clear
8:15 PM 76.5 °F 37.4 °F 24% 30.43 in 10.0 mi SE 8.1 mph - N/A   Clear
8:35 PM 75.4 °F 37.4 °F 25% 30.44 in 10.0 mi ESE 5.8 mph - N/A   Clear
8:55 PM 74.5 °F 36.5 °F 25% 30.45 in 10.0 mi ESE 4.6 mph - N/A   Clear
9:15 PM 74.5 °F 35.8 °F 24% 30.45 in 10.0 mi ESE 3.5 mph - N/A   Clear
9:35 PM 70.7 °F 38.3 °F 31% 30.45 in 10.0 mi Calm Calm - N/A   Clear
9:55 PM 69.8 °F 39.6 °F 33% 30.46 in 10.0 mi WSW 10.4 mph - N/A   Clear
10:15 PM 68.4 °F 39.9 °F 35% 30.47 in 10.0 mi WSW 6.9 mph 16.1 mph N/A   Clear
10:35 PM 69.6 °F 38.5 °F 32% 30.47 in 10.0 mi WSW 8.1 mph - N/A   Clear
10:55 PM 68.0 °F 39.0 °F 35% 30.47 in 10.0 mi WSW 10.4 mph - N/A   Clear
11:15 PM 67.1 °F 39.2 °F 36% 30.47 in 10.0 mi SW 10.4 mph - N/A   Clear
11:35 PM 66.0 °F 39.6 °F 38% 30.47 in 10.0 mi WSW 8.1 mph 16.1 mph N/A   Clear
11:55 PM 65.7 °F 38.8 °F 37% 30.47 in 10.0 mi WNW 9.2 mph - N/A   Clear